Location: Cheching
(60.0667°N, 164.2167°W)
Time: 14:04:53
(UTC+00:00)

NOAA 19 - Pass Details

Date: 26 January 2021
Orbit: 840 x 862 km, 99.2° (Epoch: 01 March)

Event Time Altitude Azimuth Distance (km) Brightness Sun altitude
Rises 18:03:14 0° 19° (NNE) 3,430 8.4 -9.5°
Reaches altitude 10° 18:05:39 10° 22° (NNE) 2,488 7.7 -9.2°
Maximum altitude 18:11:09 69° 106° (ESE) 906 5.6 -8.6°
Drops below altitude 10° 18:16:36 10° 190° (S) 2,460 7.8 -8.0°
Sets 18:18:58 0° 193° (SSW) 3,390 8.5 -7.7°
